Flag for Kuwait Weather past 2 weeks in Kuwait City, Kuwait

Now
72 °F

Clear.


Feels Like: 77 °F
Forecast: 73 / 93 °F
Wind: No wind

Location: Kuwait International Airport

Current Time: Oct 24, 2014 at 11:41:23 PM

Latest Report: Oct 24, 2014 at 11:00 PM


Visibility: 10 mi

Pressure: 29.92 "Hg

Humidity: 36%

Dew point: 43 °F

Location of Kuwait CityLocation

Historic Weather in Kuwait City — Graph

°F

Kuwait City temperature yesterday

Maximum temperature yesterday: 88 °F (at 3:00 PM)
Minimum temperature yesterday: 59 °F (at 6:00 AM)
Average temperature yesterday: 75 °F

Past Weeks' High & Low Weather Summary

 TemperatureHumidityPressure
High104 °F (Oct 12, 2:00 PM)65% (Oct 16, 5:00 AM)30.12 "Hg (Oct 16, 5:00 AM)
Low59 °F (Oct 23, 6:00 AM)10% (Oct 20, 1:00 PM)29.71 "Hg (Oct 20, 1:00 PM)
Average84 °F35%29.92 "Hg
* Reported Oct 9 10:00 PM — Oct 24 10:00 PM, Kuwait City, Weather by CustomWeather, © 2014

Note: Actual official high and low records may vary slightly from our data, if they occured in-between our weather recording intervals... More about our weather records

Advertising

Kuwait City weather history for previous 24 hours

 ConditionsComfort  
Time TempWeatherWind HumidityBarometerVisibility
10:00 PM
Oct 24
72 °FClear.3 mph38%29.95 "Hg10 mi
9:00 PM73 °FClear.No wind36%29.95 "Hg10 mi
8:00 PM73 °FClear.No wind36%29.92 "Hg10 mi
7:00 PM75 °FClear.3 mph34%29.92 "Hg10 mi
6:00 PM81 °FClear.3 mph32%29.92 "Hg10 mi
5:00 PM84 °FSunny.5 mph29%29.92 "Hg10 mi
4:00 PM88 °FSunny.No wind24%29.92 "Hg10 mi
3:00 PM88 °FSunny.3 mph22%29.92 "Hg10 mi
2:00 PM88 °FSunny.6 mph24%29.92 "Hg10 mi
1:00 PM90 °FSunny.5 mph20%29.92 "Hg10 mi
12:00 PM88 °FSunny.5 mph22%29.95 "Hg10 mi
11:00 AM84 °FSunny.5 mph27%29.98 "Hg10 mi
10:00 AM82 °FSunny.5 mph28%29.98 "Hg10 mi
9:00 AM79 °FSunny.5 mph34%30.01 "Hg10 mi
8:00 AM73 °FClear.No wind33%29.98 "Hg4 mi
7:00 AM66 °FSunny.No wind37%29.98 "Hg10 mi
6:00 AM61 °FSunny.No wind45%29.98 "Hg10 mi
5:00 AM61 °FClear.3 mph42%29.95 "Hg5 mi
4:00 AM63 °FClear.No wind39%29.95 "Hg10 mi
3:00 AM63 °FClear.No wind42%29.92 "Hg10 mi
2:00 AM64 °FClear.6 mph43%29.95 "Hg10 mi
1:00 AM64 °FClear.5 mph43%29.95 "Hg10 mi
12:00 AM66 °FClear.6 mph40%29.95 "Hg10 mi
11:00 PM
Oct 23
68 °FClear.No wind38%29.98 "Hg10 mi
Weather by CustomWeather, © 2014

See weather overviewHow to use our weather pages